Simultaneous Nadir Overpasses (SNOs) Predictions

Prediction of SNOs between GOES-15 and NPP Satellite Orbit:

Table of predicted SNOs for the next 14.0 days since TLE Epoch: 1/9/2021
Index Date Time (GOES-15) GOES-15 Lat,Lon NPP Lat,Lon Distance(km) Time Diff (sec)
1 01/09/2021 21:49:19 -0.21,-128.17 0.18,-126.52 189.19 80
2 01/11/2021 10:13:45 0.25,-128.10 1.08,-131.77 418.25 80
3 01/12/2021 09:52:21 0.23,-128.09 0.07,-127.24 95.69 80
4 01/14/2021 21:55:33 -0.25,-128.09 -0.25,-128.01 8.13 80
5 01/17/2021 10:01:15 0.28,-127.99 0.45,-128.75 86.20 80
6 01/18/2021 09:39:51 0.25,-127.97 -0.57,-124.22 427.56 80
7 01/19/2021 22:04:27 -0.29,-127.99 -0.63,-129.52 174.06 80
8 01/20/2021 21:43:03 -0.27,-127.97 0.39,-124.99 339.46 80
9 01/22/2021 10:07:30 0.32,-127.89 0.82,-130.26 269.29 80
